Location: Lamy Ridge Observatory
(35.5010°N, 105.8759°W)
Time: 09:24:27
(UTC-06:00)

ARIANE 6 FM1 Upper Stage - Visible Passes

Search period start: 08 September 2024 00:00
Search period end: 18 September 2024 00:00
Orbit: 567 x 594 km, 62.0° (Epoch: 06 September)

Date Brightness Start Highest point End Pass type
(mag) Time Alt. Az. Time Alt. Az. Time Alt. Az.
14 Sep 5.8 05:49:12 10° NNE 05:51:06 12° NE 05:52:59 10° ENE visible
15 Sep 5.5 05:53:00 10° N 05:56:07 19° NE 05:59:13 10° E visible
16 Sep 4.9 05:57:14 10° NNW 06:01:03 29° NE 06:04:50 10° ESE visible
17 Sep 3.9 06:01:40 10° NNW 06:05:53 47° NE 06:10:04 10° SE visible
17 Sep 4.9 20:02:52 10° SE 20:02:55 10° SE 20:02:55 10° SE visible
